Weather History for Gwinner, ND

Change the Weather History Date:

Sunday, November 18, 2012

  Actual Average (KP67) Record (KP67)
Temperature  
Mean Temperature 40 °F -  
Max Temperature 55 °F 22 °F 26 °F (1997)
Min Temperature 26 °F 8 °F 0 °F (1996)
Degree Days  
Heating Degree Days 24    
Moisture  
Dew Point 34 °F    
Average Humidity 84    
Maximum Humidity 100    
Minimum Humidity 54    
Precipitation  
Precipitation 0.00 in - - ()
Sea Level Pressure  
Sea Level Pressure 29.94 in    
Wind  
Wind Speed 5 mph (South)    
Max Wind Speed 12 mph    
Max Gust Speed -    
Visibility 8 miles    
Events      
Averages and records for this station are not official NWS values.
T = Trace of Precipitation, MM = Missing Value Source: NWS Daily Summary

Daily Weather History Graph

Daily Weather History Graph

Search for Another Location

Airport:

Trip Planner

Search our weather history database for the weather conditions in past years. The results will help you decide how hot, cold, wet, or windy it might be!

Date:

Astronomy

Nov. 18, 2012 Rise Set
Actual Time 7:36 AM CST 4:54 PM CST
Civil Twilight 7:03 AM CST 5:27 PM CST
Nautical Twilight 6:26 AM CST 6:04 PM CST
Astronomical Twilight 5:51 AM CST 6:39 PM CST
Moon 12:00 PM CST (11/18) 10:20 PM CST (11/18)
Length of Visible Light 10h 23m
Length of Day
9h 18m
Waxing Crescent, 30% of the Moon is Illuminated
Nov 18
Waxing Crescent
Nov 20
First Quarter
Nov 28
Full
Dec 6
Last Quarter
Dec 13
New

Hourly Weather History & Observations

Time (CST) Temp. Windchill Dew Point Humidity Pressure Visibility Wind Dir Wind Speed Gust Speed Precip Events Conditions
12:15 AM 32.0 °F 27.5 °F 32.0 °F 100% 29.98 in 5.0 mi NNE 4.6 mph - 0.00 in   Clear
12:55 AM 30.2 °F - 30.2 °F 100% 29.98 in 5.0 mi Calm Calm - 0.00 in   Clear
1:15 AM 32.0 °F - 32.0 °F 100% 29.98 in 5.0 mi Calm Calm - 0.00 in   Clear
1:35 AM 30.2 °F - 30.2 °F 100% 29.97 in 5.0 mi Calm Calm - 0.00 in   Clear
1:55 AM 32.0 °F - 32.0 °F 100% 29.97 in 7.0 mi Calm Calm - 0.00 in   Clear
2:15 AM 32.0 °F - 32.0 °F 100% 29.97 in 5.0 mi Calm Calm - 0.00 in   Clear
2:35 AM 32.0 °F - 32.0 °F 100% 29.98 in 5.0 mi Calm Calm - 0.00 in   Clear
2:55 AM 32.0 °F - 32.0 °F 100% 29.98 in 6.0 mi Calm Calm - 0.00 in   Clear
3:15 AM 30.2 °F - 30.2 °F 100% 29.98 in 6.0 mi Calm Calm - 0.00 in   Clear
3:35 AM 30.2 °F - 30.2 °F 100% 29.97 in 5.0 mi Calm Calm - 0.00 in   Clear
3:55 AM 28.4 °F - 28.4 °F 100% 29.97 in 4.0 mi Calm Calm - 0.00 in   Clear
4:15 AM 30.2 °F - 30.2 °F 100% 29.97 in 3.0 mi Calm Calm - 0.00 in   Clear
4:35 AM - - - N/A% 29.96 in 3.0 mi WSW 3.5 mph - 0.00 in   Clear
4:55 AM 30.2 °F 25.4 °F 30.2 °F 100% 29.96 in 5.0 mi SW 4.6 mph - 0.00 in   Clear
5:15 AM 30.2 °F 24.3 °F 30.2 °F 100% 29.98 in 4.0 mi SW 5.8 mph - 0.00 in   Clear
5:35 AM 30.2 °F 23.4 °F 30.2 °F 100% 29.97 in 6.0 mi SW 6.9 mph - 0.00 in   Clear
5:55 AM 28.4 °F 22.2 °F 28.4 °F 100% 29.97 in 6.0 mi SW 5.8 mph - 0.00 in   Clear
6:15 AM 26.6 °F 22.6 °F 26.6 °F 100% 29.96 in 4.0 mi SW 3.5 mph - 0.00 in   Clear
6:35 AM 28.4 °F 24.6 °F 28.4 °F 100% 29.96 in 0.8 mi SW 3.5 mph - 0.00 in   Unknown
6:55 AM 26.6 °F 20.0 °F 26.6 °F 100% 29.96 in 1.0 mi WSW 5.8 mph - 0.00 in   Clear
7:15 AM 26.6 °F 20.0 °F 26.6 °F 100% 29.97 in 0.2 mi SW 5.8 mph - 0.00 in   Unknown
7:35 AM 26.6 °F 18.2 °F 26.6 °F 100% 29.97 in 3.0 mi SW 8.1 mph - 0.00 in   Clear
7:55 AM 26.6 °F 18.2 °F 26.6 °F 100% 29.96 in 5.0 mi SW 8.1 mph - 0.00 in   Clear
8:15 AM 28.4 °F 20.4 °F 28.4 °F 100% 29.97 in 5.0 mi SW 8.1 mph - 0.00 in   Clear
8:35 AM 30.2 °F 22.6 °F 30.2 °F 100% 29.97 in 5.0 mi WSW 8.1 mph - 0.00 in   Clear
8:55 AM 30.2 °F 21.9 °F 30.2 °F 100% 29.97 in 5.0 mi SSW 9.2 mph - 0.00 in   Clear
9:15 AM 32.0 °F 24.2 °F 32.0 °F 100% 29.96 in 5.0 mi SW 9.2 mph - 0.00 in   Clear
9:35 AM 32.0 °F 25.6 °F 32.0 °F 100% 29.97 in 5.0 mi SSW 6.9 mph - 0.00 in   Clear
9:55 AM 33.8 °F 27.7 °F 33.8 °F 100% 29.97 in 7.0 mi SSW 6.9 mph - 0.00 in   Clear
10:15 AM 33.8 °F 27.0 °F 33.8 °F 100% 29.97 in 8.0 mi SSW 8.1 mph - 0.00 in   Clear
10:35 AM 35.6 °F 29.2 °F 35.6 °F 100% 29.97 in 8.0 mi SSW 8.1 mph - 0.00 in   Clear
10:55 AM 37.4 °F 30.8 °F 35.6 °F 93% 29.97 in 10.0 mi SSW 9.2 mph - 0.00 in   Clear
11:15 AM 39.2 °F 32.0 °F 35.6 °F 87% 29.97 in 10.0 mi South 11.5 mph - 0.00 in   Clear
11:35 AM 41.0 °F 34.7 °F 35.6 °F 81% 29.96 in 10.0 mi South 10.4 mph - 0.00 in   Clear
11:55 AM 42.8 °F 36.6 °F 35.6 °F 76% 29.96 in 10.0 mi South 11.5 mph - 0.00 in   Clear
12:15 PM 44.6 °F 39.7 °F 35.6 °F 71% 29.95 in 10.0 mi South 9.2 mph - 0.00 in   Clear
12:35 PM 46.4 °F 41.9 °F 37.4 °F 71% 29.95 in 10.0 mi South 9.2 mph - 0.00 in   Clear
12:55 PM 48.2 °F - 37.4 °F 66% 29.94 in 10.0 mi South 10.4 mph - 0.00 in   Clear
1:15 PM 50.0 °F - 37.4 °F 62% 29.94 in 10.0 mi SSE 8.1 mph - 0.00 in   Clear
1:35 PM 51.8 °F - 37.4 °F 58% 29.93 in 10.0 mi SSE 6.9 mph - 0.00 in   Clear
1:55 PM 51.8 °F - 37.4 °F 58% 29.92 in 10.0 mi SSE 6.9 mph - 0.00 in   Clear
2:15 PM 51.8 °F - 37.4 °F 58% 29.91 in 10.0 mi ESE 6.9 mph - 0.00 in   Clear
2:35 PM 53.6 °F - 37.4 °F 54% 29.91 in 10.0 mi SE 6.9 mph - 0.00 in   Clear
2:55 PM 55.4 °F - 39.2 °F 54% 29.91 in 10.0 mi SE 6.9 mph - 0.00 in   Clear
3:15 PM 55.4 °F - 39.2 °F 54% 29.90 in 10.0 mi SE 8.1 mph - 0.00 in   Clear
3:35 PM 55.4 °F - 39.2 °F 54% 29.90 in 10.0 mi ESE 10.4 mph - 0.00 in   Clear
3:55 PM 51.8 °F - 39.2 °F 62% 29.90 in 10.0 mi ESE 8.1 mph - 0.00 in   Mostly Cloudy
4:15 PM 51.8 °F - 39.2 °F 62% 29.90 in 10.0 mi ESE 9.2 mph - 0.00 in   Scattered Clouds
4:35 PM 51.8 °F - 39.2 °F 62% 29.90 in 10.0 mi ESE 10.4 mph - 0.00 in   Scattered Clouds
4:55 PM 48.2 °F - 39.2 °F 71% 29.90 in 10.0 mi ESE 9.2 mph - 0.00 in   Mostly Cloudy
5:15 PM 48.2 °F - 39.2 °F 71% 29.90 in 10.0 mi ESE 8.1 mph - 0.00 in   Partly Cloudy
5:35 PM 46.4 °F 41.9 °F 37.4 °F 71% 29.90 in 10.0 mi ESE 9.2 mph - 0.00 in   Clear
5:55 PM 46.4 °F 42.4 °F 39.2 °F 76% 29.90 in 10.0 mi ESE 8.1 mph - 0.00 in   Partly Cloudy
6:15 PM 46.4 °F 42.4 °F 37.4 °F 71% 29.90 in 10.0 mi ESE 8.1 mph - 0.00 in   Scattered Clouds
6:35 PM 46.4 °F 42.9 °F 37.4 °F 71% 29.90 in 10.0 mi SE 6.9 mph - 0.00 in   Scattered Clouds
6:55 PM 46.4 °F 41.9 °F 37.4 °F 71% 29.90 in 10.0 mi SE 9.2 mph - 0.00 in   Mostly Cloudy
7:15 PM 44.6 °F 40.2 °F 37.4 °F 76% 29.90 in 10.0 mi SSE 8.1 mph - 0.00 in   Mostly Cloudy
7:35 PM 44.6 °F 40.2 °F 37.4 °F 76% 29.90 in 10.0 mi SSE 8.1 mph - 0.00 in   Scattered Clouds
7:55 PM 41.0 °F 36.4 °F 37.4 °F 87% 29.90 in 10.0 mi SE 6.9 mph - 0.00 in   Clear
8:15 PM 39.2 °F 32.5 °F 37.4 °F 93% 29.89 in 10.0 mi SE 10.4 mph - 0.00 in   Clear
8:35 PM 39.2 °F 33.6 °F 37.4 °F 93% 29.89 in 10.0 mi SSE 8.1 mph - 0.00 in   Clear
8:55 PM 41.0 °F 35.8 °F 37.4 °F 87% 29.89 in 10.0 mi SSE 8.1 mph - 0.00 in   Partly Cloudy
9:15 PM 42.8 °F 39.3 °F 37.4 °F 81% 29.89 in 10.0 mi SE 5.8 mph - 0.00 in   Mostly Cloudy
9:35 PM 44.6 °F 39.7 °F 37.4 °F 76% 29.90 in 10.0 mi SE 9.2 mph - 0.00 in   Mostly Cloudy
9:55 PM 44.6 °F 41.4 °F 37.4 °F 76% 29.90 in 10.0 mi SSE 5.8 mph - 0.00 in   Scattered Clouds
10:15 PM 41.0 °F 35.2 °F 35.6 °F 81% 29.89 in 10.0 mi ESE 9.2 mph - 0.00 in   Clear
10:35 PM 42.8 °F 39.3 °F 35.6 °F 76% 29.89 in 10.0 mi SSE 5.8 mph - 0.00 in   Clear
10:55 PM 42.8 °F 37.0 °F 37.4 °F 81% 29.88 in 10.0 mi South 10.4 mph - 0.00 in   Clear
11:15 PM 42.8 °F 39.3 °F 37.4 °F 81% 29.89 in 10.0 mi SSE 5.8 mph - 0.00 in   Clear
11:35 PM 42.8 °F 37.5 °F 37.4 °F 81% 29.88 in 10.0 mi South 9.2 mph - 0.00 in   Clear
11:55 PM 42.8 °F 38.0 °F 37.4 °F 81% 29.88 in 10.0 mi South 8.1 mph - 0.00 in   Clear